Regional Weather Roundup
Issued by NWS Austin/San Antonio, TX

Home | Current Version | Previous Version | Text Only | Print | Product List | Glossary On
Versions: 1 2 3 4 5 6 7 8 9 10 11 12 13 14 15 16 17 18 19 20 21 22 23 24 25 26 27 28 29 30 31 32 33 34 35 36 37 38 39 40 41 42 43 44 45 46 47 48 49 50
443
ASUS44 KEWX 280302
RWREWX
SOUTH TEXAS REGIONAL WEATHER ROUNDUP
NATIONAL WEATHER SERVICE AUSTIN/SAN ANTONIO TX
1000 PM CDT THU APR 27 2017

NOTE: "FAIR" INDICATED FEW OR NO CLOUDS BELOW 12,000 FEET WITH NO
SIGNIFICANT WEATHER AND/OR OBSTRUCTIONS TO VISIBILITY.

* - THESE STATIONS ARE NOT NWS OR FAA STATIONS...AND ARE NOT SUBJECT
    TO NWS AND FAA QUALITY CONTROL.

TXZ171-172-183>190-280400-
TEXAS HILL COUNTRY AND EDWARDS PLATEAU

CITY           SKY/WX    TMP DP  RH WIND       PRES   REMARKS
JUNCTION       CLOUDY    75  52  44 SE6       29.59S
*LLANO         CLEAR     72  52  49 CALM      29.61S
BURNET         CLEAR     73  53  49 S9        29.62S
*HORSESHOE BAY CLEAR     72  55  54 SE7       29.60F
*KERRVILLE     CLEAR     74  62  66 SE12      29.63S
*FREDERICKSBRG CLEAR     74  54  48 S8        29.63S
*ROCKSPRINGS   CLOUDY    72  55  56 S8        29.65S
*BOERNE STAGE  PTCLDY    73  59  60 S13G21    29.65R
*CASTROVILLE   PTCLDY    76  60  57 SE10G16   29.64R
HONDO          CLEAR     78  65  63 SE13      29.62R
*UVALDE        CLEAR     75  61  62 E7        29.60R
DEL RIO        CLOUDY    81  60  48 SE14      29.54R
LAUGHLIN AFB   MOCLDY    75  61  63 SE7       29.55S
CARRIZO SPRGS  CLEAR     82  63  51 SE10G20   29.55S
*EAGLE PASS    NOT AVBL
$$

TXZ173-191>194-202-209-217>225-228-280400-
CENTRAL AND SOUTH CENTRAL TEXAS

CITY           SKY/WX    TMP DP  RH WIND       PRES   REMARKS
GEORGETOWN     CLOUDY    72  54  53 SE7       29.61S
AUSTIN/BERGSTM CLOUDY    72  61  68 S9        29.61S
AUSTIN/MABRY   CLOUDY    74  60  61 SE10G20   29.62S
*AUSTIN/EXEC   FAIR      72  59  64 S9G16     29.62S
*LAGO VISTA    CLOUDY    73  56  55 S8        29.62S
SAN MARCOS     PTCLDY    70  59  68 S9        29.64S
NEW BRAUNFELS  PTCLDY    74  63  68 S12       29.63R
RANDOLPH AFB   PTCLDY    72  62  71 SE15      29.63R
PT SAN ANTONIO PTCLDY    76  63  64 SE14      29.61R
SAN ANTONIO    MOCLDY    76  62  62 SE17G23   29.63R
STINSON FIELD  CLEAR     76  63  64 SE13      29.62R
*LA GRANGE     CLOUDY    73  66  79 S6        29.64R
*GIDDINGS      CLOUDY    71  63  74 S7        29.65R
*GONZALES      CLOUDY    71  67  86 SE10G17   29.65R
$$

TXZ163>164-176>182-195>201-210>213-226-227-235-280400-
SOUTHEAST TEXAS

CITY           SKY/WX    TMP DP  RH WIND       PRES   REMARKS
COLLEGE STN    CLOUDY    72  59  63 S12       29.64R
*BRYAN         CLOUDY    67  56  69 SE7       29.66R
*CALDWELL      NOT AVBL
*CROCKETT      CLOUDY    68  55  64 SE6       29.69R
*BRENHAM       CLOUDY    72  62  72 SE6       29.67R
HUNTSVILLE     PTCLDY    72  54  53 VRB7      29.66R
CONROE         CLEAR     68  58  70 SE8       29.69R
HOUSTON BUSH   MOCLDY    70  62  76 SE10      29.69R
HOUSTON HOBBY  MOCLDY    70  64  81 SE9       29.68S
*HOUSTON SW AP CLOUDY    68  64  85 SE5       29.69S
PEARLAND       CLOUDY    73  64  73 SE8       29.69S
HOUSTON HOOKS  CLEAR     71  58  63 SE10      29.67S
ELLINGTON FLD  MOCLDY    72  63  73 SE10      29.70S
SUGAR LAND     MOCLDY    72  64  76 SE10      29.68R
*HOUSTON EXEC  CLOUDY    70  63  78 SE9       29.69R
*CLEVELAND MUN CLEAR     67  56  65 S6        29.69S
*WHARTON       CLOUDY    71  63  76 SE10      29.68R
*COLUMBUS      FAIR      70  62  75 SE8       29.67R
*EAGLE LAKE    CLOUDY    71  64  80 SE9       29.67R
$$

TXZ214>216-236>238-280400-
THE UPPER TEXAS COAST

CITY           SKY/WX    TMP DP  RH WIND       PRES   REMARKS
*ORANGE        PTCLDY    72  65  80 SE6       29.72S
PORT ARTHUR    PTCLDY    71  60  68 SE9       29.70R
GALVESTON      CLOUDY    76  71  85 SE23      29.69F
ANGLETON       CLOUDY    74  67  78 SE8       29.68F
*BAY CITY      CLOUDY    72  67  83 SE7       29.67F
PALACIOS       CLOUDY    74  69  85 SE14      29.67F
$$

TXZ229>234-239>247-280400-
TEXAS COASTAL BEND AND RIO GRANDE PLAINS

CITY           SKY/WX    TMP DP  RH WIND       PRES   REMARKS
VICTORIA       CLOUDY    73  67  81 SE16      29.66F
*BEEVILLE      CLOUDY    73  69  87 SE13      29.65F
ROCKPORT       CLOUDY    76  69  79 SE12      29.66S
*PORT ARANSAS  CLOUDY    75  70  84 SE12      29.66S
*PORT LAVACA   CLOUDY    73  71  93 SE12      29.67F
*INGLESIDE     CLOUDY    76  71  83 E5        29.66S
CORPUS CHRISTI CLOUDY    75  70  84 SE13      29.65S
CORPUS NAS     CLOUDY    77  73  87 SE12      29.66S
*ROBSTOWN      CLOUDY    76  70  80 SE13      29.65F
ALICE          CLOUDY    75  68  78 SE10      29.64S
KINGSVILLE NAS CLOUDY    76  72  87 SE8       29.65R
COTULLA        CLEAR     81  65  58 SE20G25   29.59R
*FAITH RANCH   MOCLDY    84  64  51 SE12G18   29.55R
LAREDO         CLEAR     82  69  64 E15       29.59R
$$

TXZ248>255-280400-
DEEP SOUTH TEXAS

CITY           SKY/WX    TMP DP  RH WIND       PRES   REMARKS
BROWNSVILLE    CLOUDY    80  71  74 SE12      29.65R
PORT ISABEL    CLOUDY    79  73  82 SE14      29.64R
*SOUTH PADRE   NOT AVBL
HARLINGEN      CLOUDY    79  74  84 SE12      29.63R
*HEBBRONVILLE  MOCLDY    73  67  82 SE10      29.64S
MCALLEN        CLOUDY    82  71  69 SE17      29.63R
*WESLACO       CLOUDY    80  71  74 S10       29.62S
FALFURRIAS     CLOUDY    77  70  78 E7        29.64R
EDINBURG       CLOUDY    78  71  80 E9        29.62S
*ZAPATA        CLOUDY    81  68  65 E16G22    29.59R
$$

TXZ213>215-236>238-242>244-246-247-251-254-255-280400-
CMAN STATIONS

STATION/POSITION TIME  TEMP    WIND        PRES    WAVE
                       AIR SEA DIR/SP/G            HT/PER
                 (UTC) (F)     (DEG/KT/KT) (MB)    (FT/S)
SABINE PASS      0230   74 77  140/ 18/ 21 1006.9
SEA RIM ST PARK  0200   73     130/ 12/ 14 1006.7
NORTH JETTY/GLS  0230      75  130/ 19/ 22 1005.3
EAGLE POINT      0230   73 75  150/ 19/ 22 1004.6
MORGANS POINT    0230   72 75  140/  9/ 17 1005.2
MISSION/ARANSAS  0200   75                 1005.0
PORT O`CONNOR    0230   74     130/ 14/ 18 1004.5
PORT ARANSAS     0200   74 77  110/ 12/ 13 1004.4
MALAQUITE BEACH  0230   75 78  110/ 13/ 14 1004.7
BAFFIN BAY       0230   76 78   80/ 10/ 13 1004.0
PORT ISABEL      0230   79 81  160/  7/  9 1003.7
$$




USA.gov is the U.S. government's official web portal to all federal, state and local government web resources and services.